FW0639 Weather Reports


time (UTC)temp
F
wind
direction
speed
knots
gust
knots
rain 1hr
in
rain 24hr
in
rain mn
in
humidity
%
barometer
mb
20260508030007 56 346 0.0 0.0 0.00 0.00 0.00 53 1008.3
20260508023808 58 341 0.0 0.0 0.00 0.00 0.00 48 1008.0
20260508022825 58 340 0.0 0.0 0.00 0.00 0.00 47 1007.9
20260508021755 59 340 0.0 0.0 0.00 0.00 0.00 48 1007.7
20260508020814 59 340 0.0 0.0 0.00 0.00 0.00 48 1007.7
20260508015759 59 340 0.0 0.0 0.00 0.00 0.00 47 1007.6
20260508014736 60 339 0.0 0.0 0.00 0.00 0.00 46 1007.6
20260508013759 60 339 0.0 0.0 0.00 0.00 0.00 47 1007.5
20260508012754 60 340 0.0 0.0 0.00 0.00 0.00 44 1007.3
20260508011811 61 339 0.0 0.0 0.00 0.00 0.00 43 1007.2
20260508010836 62 339 0.0 5.2 0.00 0.00 0.00 42 1007.3
20260508005819 62 339 0.9 5.2 0.00 0.00 0.00 41 1007.2
20260508004823 62 339 0.9 5.2 0.00 0.00 0.00 41 1007.1
20260508003838 62 339 0.9 5.2 0.00 0.00 0.00 42 1007.1
20260508001732 63 338 1.7 7.8 0.00 0.00 0.00 41 1007.0
20260508000719 63 338 1.7 7.8 0.00 0.00 0.00 40 1006.9
20260507235658 63 339 0.9 8.7 0.00 0.00 0.00 38 1006.8
20260507234650 63 338 0.9 8.7 0.00 0.00 0.00 39 1006.9
20260507231443 64 338 1.7 5.2 0.00 0.00 0.00 45 1006.8
20260507225339 65 338 2.6 12.2 0.00 0.00 0.00 36 1006.8
20260507224351 65 339 1.7 12.2 0.00 0.00 0.00 35 1006.7
20260507223337 65 339 3.5 9.6 0.00 0.00 0.00 36 1006.5
20260507222351 65 340 2.6 7.8 0.00 0.00 0.00 38 1006.6
20260507221358 64 338 0.9 7.8 0.00 0.00 0.00 41 1006.7
20260507220327 63 339 1.7 5.2 0.00 0.00 0.00 40 1006.6
20260507215256 62 328 0.9 4.3 0.00 0.00 0.00 42 1006.8
20260507214259 62 328 1.7 6.1 0.00 0.00 0.00 41 1006.8
20260507211047 64 338 1.7 6.1 0.00 0.00 0.00 37 1007.0
20260507210035 65 338 1.7 8.7 0.00 0.00 0.00 35 1006.9
20260507202834 67 159 1.7 7.0 0.00 0.00 0.00 38 1007.2
20260507201837 66 343 1.7 7.0 0.00 0.00 0.00 37 1007.4
20260507200803 65 339 2.6 8.7 0.00 0.00 0.00 39 1007.5
20260507195811 65 340 1.7 8.7 0.00 0.00 0.00 37 1007.5
20260507194753 65 338 1.7 8.7 0.00 0.00 0.00 39 1007.6
20260507193741 64 339 2.6 8.7 0.00 0.00 0.00 38 1007.7
20260507191636 62 339 1.7 5.2 0.00 0.00 0.00 42 1007.9
20260507184339 62 338 0.9 10.4 0.00 0.00 0.00 41 1008.2
20260507183353 62 343 2.6 10.4 0.00 0.00 0.00 40 1008.2
20260507181221 61 338 1.7 9.6 0.00 0.00 0.00 41 1008.3
20260507180156 61 328 3.5 9.6 0.00 0.00 0.00 43 1008.2
20260507175207 60 338 1.7 8.7 0.00 0.00 0.00 44 1008.1